LEMUR-2-KUNGFOO

Last updated on Wed Feb 14 2018 16:20:44 GMT+0000 (Coordinated Universal Time)

1 42774U 17036K 18044.89861920 .00001364 00000-0 64824-4 0 9993 2 42774 97.4188 106.3879 0015843 133.0542 227.2023 15.20806868 35758

Satellite not in orbit

LEMUR-2-KUNGFOO